Terminal Aerodrome Forecast
Issued by NWS

Home | Current Version | Previous Version | Text Only | Print | Product List | Glossary On
Versions: 1 2 3 4 5 6 7 8 9 10 11 12
000
FTUS42 TJSJ 271700
TAFJMZ
TAF
TJMZ 271720Z 2718/2818 27010KT P6SM VCSH SCT025 BKN040
      TEMPO 2718/2721 5SM -SHRA BKN025
     FM272330 04004KT P6SM SCT025
     FM281530 27010KT P6SM SCT025 BKN040
      AMD NOT SKED=

USA.gov is the U.S. government's official web portal to all federal, state and local government web resources and services.